Location: Easter Hill Village
(37.9235°N, 122.3444°W)
Time: 12:07:27
(UTC+00:00)

CZ-4B DEB - Pass Details

Date: 16 September 2019
Orbit: 841 x 862 km, 99.1° (Epoch: 17 October)

Event Time Altitude Azimuth Distance (km) Brightness Sun altitude
Rises 13:11:43 0° 15° (NNE) 3,442 7.7 -8.7°
Reaches altitude 10° 13:14:07 10° 16° (NNE) 2,499 7.0 -8.2°
Maximum altitude 13:19:40 79° 103° (ESE) 874 4.4 -7.2°
Drops below altitude 10° 13:25:10 10° 191° (S) 2,470 6.5 -6.1°
Sets 13:27:31 0° 192° (SSW) 3,398 7.1 -5.6°
